QPF
0.09 0.11 0.11 0.12 0.07 0.05 0.07 0.10 0.10 0.11 0.08 0.04 0.02 0.02 0.02 0.02 0.02 0.02 0.03 0.03 0.03 0.02 0.03 0.03 0.03 0.02 0.02 0.02 0.03 0.03 0.02 0.02 0.02 0.01 0.01 0.01 0.01 0.01 0.02 0.01 0.01 0.01 0.00
0.06 0.07 0.08 0.09 0.07 0.06 0.06 0.06 0.07 0.09 0.10 0.06 0.05 0.03 0.02 0.02 0.04 0.04 0.04 0.04 0.02 0.01 0.02 0.02 0.03 0.02 0.01 0.01 0.01 0.03 0.02 0.02 0.02 0.02 0.01 0.02 0.01 0.01 0.01 0.01 0.01 0.01 0.01
0.04 0.05 0.08 0.06 0.05 0.04 0.04 0.05 0.06 0.10 0.09 0.07 0.07 0.06 0.05 0.04 0.05 0.05 0.06 0.05 0.03 0.02 0.01 0.01 0.02 0.02 0.02 0.02 0.03 0.02 0.03 0.02 0.02 0.02 0.01 0.01 0.01 0.01 0.01 0.02 0.02 0.02 0.01
0.03 0.05 0.06 0.05 0.03 0.03 0.02 0.05 0.05 0.07 0.09 0.10 0.08 0.06 0.07 0.08 0.05 0.04 0.05 0.06 0.05 0.04 0.03 0.02 0.02 0.03 0.03 0.04 0.04 0.03 0.04 0.03 0.02 0.02 0.02 0.01 0.01 0.01 0.01 0.02 0.02 0.02 0.02
0.02 0.03 0.05 0.07 0.03 0.03 0.02 0.03 0.05 0.06 0.09 0.10 0.07 0.08 0.06 0.08 0.06 0.04 0.04 0.04 0.05 0.04 0.03 0.03 0.02 0.02 0.02 0.04 0.04 0.04 0.04 0.04 0.02 0.03 0.03 0.02 0.02 0.02 0.02 0.01 0.01 0.01 0.02
0.02 0.04 0.04 0.04 0.03 0.03 0.04 0.04 0.06 0.05 0.07 0.09 0.08 0.14 0.08 0.08 0.07 0.07 0.06 0.07 0.06 0.03 0.04 0.05 0.05 0.03 0.02 0.02 0.03 0.04 0.05 0.05 0.04 0.03 0.03 0.03 0.04 0.03 0.02 0.01 0.01 0.01 0.01
0.04 0.05 0.06 0.08 0.05 0.05 0.04 0.04 0.06 0.06 0.06 0.06 0.12 0.18 0.15 0.11 0.08 0.05 0.06 0.11 0.12 0.05 0.06 0.07 0.08 0.08 0.05 0.02 0.02 0.01 0.03 0.06 0.05 0.04 0.05 0.04 0.05 0.04 0.02 0.02 0.01 0.01 0.01
0.04 0.04 0.07 0.06 0.07 0.09 0.07 0.08 0.09 0.10 0.09 0.07 0.12 0.17 0.16 0.19 0.19 0.08 0.07 0.08 0.11 0.09 0.06 0.06 0.07 0.09 0.08 0.05 0.02 0.01 0.01 0.03 0.04 0.04 0.04 0.04 0.04 0.04 0.03 0.03 0.03 0.02 0.02
0.04 0.05 0.05 0.05 0.09 0.06 0.09 0.10 0.09 0.10 0.11 0.11 0.08 0.12 0.16 0.20 0.17 0.14 0.10 0.07 0.06 0.06 0.05 0.05 0.06 0.10 0.11 0.09 0.07 0.03 0.01 0.02 0.02 0.04 0.04 0.04 0.04 0.04 0.04 0.04 0.04 0.04 0.03
0.06 0.07 0.07 0.08 0.10 0.06 0.11 0.07 0.07 0.09 0.11 0.11 0.11 0.07 0.08 0.14 0.18 0.16 0.12 0.07 0.06 0.05 0.05 0.05 0.06 0.08 0.09 0.09 0.08 0.03 0.02 0.02 0.03 0.05 0.05 0.05 0.05 0.04 0.05 0.05 0.06 0.06 0.05
0.10 0.08 0.09 0.10 0.09 0.07 0.08 0.08 0.12 0.10 0.09 0.09 0.11 0.10 0.09 0.10 0.09 0.14 0.15 0.12 0.10 0.06 0.05 0.06 0.08 0.09 0.09 0.10 0.09 0.06 0.04 0.03 0.03 0.03 0.03 0.05 0.05 0.06 0.06 0.06 0.07 0.06 0.06
0.09 0.08 0.11 0.13 0.09 0.08 0.09 0.08 0.09 0.08 0.10 0.12 0.11 0.11 0.11 0.11 0.10 0.12 0.14 0.13 0.10 0.05 0.05 0.06 0.07 0.08 0.09 0.09 0.08 0.07 0.05 0.04 0.04 0.03 0.03 0.03 0.04 0.04 0.05 0.05 0.05 0.04 0.05
0.08 0.08 0.11 0.14 0.12 0.11 0.10 0.10 0.10 0.11 0.12 0.12 0.09 0.08 0.08 0.07 0.08 0.09 0.13 0.11 0.09 0.06 0.08 0.07 0.05 0.05 0.06 0.07 0.07 0.06 0.05 0.03 0.03 0.02 0.02 0.02 0.02 0.02 0.02 0.03 0.03 0.03 0.04
0.11 0.10 0.11 0.10 0.10 0.10 0.08 0.13 0.11 0.12 0.12 0.09 0.08 0.10 0.09 0.06 0.06 0.07 0.09 0.11 0.12 0.11 0.12 0.10 0.07 0.06 0.06 0.06 0.05 0.04 0.02 0.03 0.03 0.02 0.01 0.02 0.02 0.02 0.02 0.02 0.02 0.02 0.02
0.11 0.10 0.09 0.08 0.09 0.12 0.12 0.14 0.12 0.14 0.14 0.11 0.09 0.09 0.08 0.06 0.05 0.04 0.05 0.08 0.13 0.17 0.17 0.12 0.08 0.06 0.05 0.04 0.04 0.02 0.03 0.05 0.04 0.03 0.02 0.02 0.02 0.02 0.02 0.02 0.02 0.02 0.02
0.10 0.11 0.09 0.08 0.08 0.11 0.12 0.12 0.11 0.11 0.13 0.13 0.10 0.10 0.08 0.05 0.05 0.04 0.05 0.07 0.11 0.16 0.19 0.12 0.07 0.05 0.05 0.04 0.05 0.04 0.05 0.06 0.05 0.03 0.02 0.02 0.02 0.02 0.02 0.03 0.03 0.04 0.04
0.10 0.11 0.11 0.09 0.08 0.09 0.10 0.11 0.09 0.09 0.11 0.13 0.09 0.08 0.08 0.06 0.07 0.06 0.08 0.11 0.14 0.17 0.19 0.14 0.09 0.07 0.06 0.06 0.05 0.05 0.04 0.04 0.04 0.03 0.03 0.03 0.03 0.03 0.03 0.04 0.04 0.05 0.05
0.09 0.10 0.11 0.10 0.08 0.08 0.10 0.09 0.06 0.08 0.12 0.12 0.11 0.13 0.11 0.10 0.11 0.09 0.10 0.11 0.11 0.11 0.12 0.12 0.11 0.07 0.07 0.07 0.06 0.04 0.03 0.03 0.03 0.03 0.03 0.04 0.04 0.04 0.03 0.03 0.03 0.03 0.04
0.09 0.10 0.12 0.11 0.10 0.11 0.11 0.09 0.08 0.10 0.12 0.11 0.11 0.13 0.11 0.14 0.14 0.12 0.11 0.12 0.11 0.08 0.09 0.09 0.09 0.09 0.07 0.06 0.05 0.04 0.05 0.04 0.04 0.05 0.04 0.03 0.02 0.02 0.02 0.02 0.02 0.02 0.02
0.09 0.10 0.11 0.12 0.13 0.12 0.13 0.09 0.09 0.11 0.11 0.11 0.11 0.11 0.09 0.10 0.09 0.09 0.10 0.10 0.10 0.10 0.10 0.09 0.10 0.10 0.09 0.08 0.07 0.06 0.05 0.05 0.04 0.03 0.03 0.03 0.02 0.02 0.02 0.02 0.02 0.02 0.02
0.08 0.09 0.10 0.10 0.11 0.12 0.11 0.10 0.10 0.10 0.11 0.10 0.09 0.08 0.08 0.08 0.08 0.08 0.08 0.09 0.09 0.09 0.08 0.08 0.11 0.11 0.12 0.10 0.08 0.07 0.06 0.05 0.04 0.03 0.03 0.03 0.03 0.04 0.05 0.06 0.06 0.05 0.05
0.07 0.08 0.08 0.08 0.08 0.06 0.06 0.06 0.07 0.08 0.10 0.09 0.08 0.08 0.07 0.07 0.07 0.06 0.06 0.09 0.10 0.10 0.10 0.12 0.13 0.12 0.13 0.12 0.11 0.09 0.08 0.08 0.07 0.06 0.06 0.05 0.04 0.04 0.04 0.05 0.06 0.07 0.06
0.07 0.07 0.07 0.07 0.06 0.05 0.05 0.05 0.04 0.05 0.07 0.07 0.08 0.07 0.05 0.05 0.05 0.06 0.08 0.10 0.12 0.13 0.13 0.13 0.14 0.13 0.13 0.12 0.11 0.10 0.08 0.07 0.06 0.05 0.04 0.04 0.04 0.04 0.04 0.05 0.06 0.06 0.05
0.06 0.06 0.06 0.06 0.06 0.06 0.06 0.04 0.03 0.04 0.03 0.04 0.05 0.06 0.06 0.06 0.06 0.08 0.07 0.07 0.08 0.10 0.11 0.11 0.11 0.10 0.09 0.09 0.08 0.07 0.07 0.05 0.04 0.03 0.02 0.02 0.03 0.04 0.04 0.05 0.05 0.05 0.03
0.04 0.05 0.05 0.05 0.04 0.05 0.06 0.05 0.04 0.03 0.02 0.02 0.02 0.03 0.04 0.05 0.06 0.08 0.07 0.06 0.05 0.05 0.06 0.06 0.06 0.05 0.05 0.05 0.05 0.05 0.04 0.03 0.03 0.02 0.02 0.02 0.03 0.04 0.04 0.04 0.04 0.03 0.02
0.04 0.04 0.04 0.04 0.03 0.03 0.05 0.04 0.03 0.02 0.01 0.01 0.02 0.03 0.05 0.05 0.06 0.05 0.05 0.04 0.02 0.02 0.02 0.02 0.02 0.02 0.02 0.02 0.03 0.03 0.03 0.03 0.04 0.03 0.03 0.03 0.04 0.04 0.04 0.03 0.02 0.02 0.01
MSLP
1017.78 1018.07 1018.28 1018.43 1018.54 1018.63 1018.71 1018.78 1018.84 1018.88 1018.89 1018.86 1018.83 1018.83 1018.90 1019.07 1019.37 1019.80 1020.32 1020.90 1021.48 1022.00 1022.44 1022.76 1022.97 1023.10 1023.18 1023.25 1023.32 1023.43 1023.56 1023.71 1023.87 1024.01 1024.14 1024.25 1024.33 1024.41 1024.47 1024.54 1024.61 1024.67 1024.72
1017.74 1018.03 1018.24 1018.38 1018.47 1018.54 1018.60 1018.67 1018.74 1018.81 1018.87 1018.91 1018.94 1019.00 1019.09 1019.26 1019.52 1019.87 1020.30 1020.79 1021.30 1021.78 1022.21 1022.57 1022.84 1023.05 1023.20 1023.32 1023.43 1023.53 1023.64 1023.76 1023.88 1023.99 1024.11 1024.22 1024.32 1024.43 1024.52 1024.61 1024.69 1024.75 1024.78
1017.62 1017.91 1018.12 1018.26 1018.36 1018.44 1018.51 1018.60 1018.70 1018.81 1018.93 1019.04 1019.14 1019.24 1019.36 1019.50 1019.70 1019.95 1020.27 1020.63 1021.04 1021.45 1021.86 1022.23 1022.57 1022.86 1023.09 1023.29 1023.45 1023.58 1023.69 1023.79 1023.88 1023.97 1024.07 1024.17 1024.29 1024.41 1024.53 1024.63 1024.71 1024.77 1024.79
1017.40 1017.69 1017.92 1018.09 1018.22 1018.33 1018.43 1018.56 1018.71 1018.88 1019.06 1019.24 1019.40 1019.54 1019.66 1019.77 1019.89 1020.03 1020.21 1020.44 1020.72 1021.05 1021.41 1021.79 1022.17 1022.53 1022.86 1023.14 1023.36 1023.54 1023.67 1023.77 1023.85 1023.92 1024.01 1024.11 1024.23 1024.35 1024.48 1024.60 1024.68 1024.73 1024.74
1017.13 1017.42 1017.67 1017.88 1018.06 1018.22 1018.38 1018.56 1018.76 1018.99 1019.22 1019.45 1019.65 1019.82 1019.94 1020.01 1020.05 1020.09 1020.14 1020.23 1020.39 1020.62 1020.91 1021.27 1021.68 1022.09 1022.49 1022.85 1023.15 1023.39 1023.56 1023.68 1023.76 1023.84 1023.92 1024.02 1024.14 1024.27 1024.40 1024.52 1024.60 1024.64 1024.63
1016.85 1017.13 1017.41 1017.67 1017.90 1018.12 1018.35 1018.57 1018.82 1019.09 1019.36 1019.63 1019.86 1020.04 1020.15 1020.19 1020.18 1020.12 1020.07 1020.04 1020.08 1020.20 1020.43 1020.75 1021.14 1021.59 1022.03 1022.45 1022.82 1023.11 1023.32 1023.48 1023.59 1023.68 1023.77 1023.88 1024.00 1024.14 1024.28 1024.39 1024.47 1024.50 1024.49
1016.59 1016.87 1017.17 1017.47 1017.76 1018.04 1018.31 1018.59 1018.86 1019.15 1019.44 1019.72 1019.96 1020.15 1020.26 1020.29 1020.24 1020.13 1020.00 1019.88 1019.83 1019.86 1020.01 1020.27 1020.63 1021.06 1021.51 1021.96 1022.36 1022.70 1022.96 1023.15 1023.30 1023.42 1023.54 1023.67 1023.81 1023.97 1024.11 1024.23 1024.31 1024.34 1024.33
1016.40 1016.67 1016.98 1017.32 1017.65 1017.97 1018.27 1018.57 1018.86 1019.14 1019.42 1019.70 1019.94 1020.13 1020.24 1020.28 1020.23 1020.11 1019.95 1019.79 1019.67 1019.63 1019.71 1019.89 1020.19 1020.57 1021.00 1021.43 1021.84 1022.19 1022.48 1022.71 1022.90 1023.07 1023.23 1023.39 1023.57 1023.75 1023.91 1024.05 1024.14 1024.19 1024.19
1016.30 1016.54 1016.86 1017.20 1017.55 1017.90 1018.21 1018.50 1018.78 1019.04 1019.30 1019.55 1019.78 1019.97 1020.11 1020.17 1020.15 1020.06 1019.91 1019.75 1019.62 1019.54 1019.55 1019.67 1019.88 1020.19 1020.55 1020.93 1021.31 1021.65 1021.95 1022.21 1022.43 1022.64 1022.85 1023.07 1023.29 1023.51 1023.71 1023.88 1024.01 1024.08 1024.11
1016.25 1016.47 1016.77 1017.11 1017.46 1017.79 1018.10 1018.38 1018.62 1018.85 1019.07 1019.29 1019.50 1019.70 1019.85 1019.96 1020.00 1019.98 1019.89 1019.78 1019.66 1019.57 1019.55 1019.60 1019.74 1019.95 1020.23 1020.53 1020.85 1021.16 1021.44 1021.71 1021.97 1022.23 1022.49 1022.75 1023.03 1023.30 1023.55 1023.77 1023.94 1024.06 1024.14
1016.23 1016.42 1016.68 1017.00 1017.33 1017.65 1017.93 1018.18 1018.39 1018.57 1018.75 1018.94 1019.13 1019.33 1019.51 1019.67 1019.79 1019.85 1019.86 1019.82 1019.76 1019.70 1019.67 1019.68 1019.76 1019.89 1020.07 1020.30 1020.54 1020.80 1021.06 1021.33 1021.61 1021.90 1022.21 1022.53 1022.86 1023.18 1023.49 1023.76 1023.98 1024.15 1024.28
1016.18 1016.33 1016.55 1016.84 1017.14 1017.43 1017.70 1017.91 1018.09 1018.23 1018.37 1018.52 1018.70 1018.89 1019.11 1019.32 1019.51 1019.66 1019.77 1019.83 1019.86 1019.86 1019.86 1019.87 1019.92 1020.00 1020.11 1020.27 1020.45 1020.66 1020.90 1021.15 1021.44 1021.76 1022.11 1022.47 1022.84 1023.22 1023.57 1023.88 1024.15 1024.38 1024.56
1016.04 1016.16 1016.36 1016.61 1016.88 1017.16 1017.39 1017.59 1017.74 1017.86 1017.97 1018.09 1018.24 1018.43 1018.65 1018.90 1019.16 1019.40 1019.61 1019.78 1019.91 1020.00 1020.06 1020.12 1020.17 1020.24 1020.33 1020.45 1020.60 1020.78 1020.99 1021.24 1021.54 1021.87 1022.24 1022.63 1023.04 1023.44 1023.82 1024.16 1024.47 1024.72 1024.94
1015.82 1015.91 1016.09 1016.31 1016.57 1016.83 1017.05 1017.24 1017.38 1017.48 1017.56 1017.66 1017.78 1017.95 1018.17 1018.44 1018.73 1019.04 1019.34 1019.61 1019.85 1020.05 1020.21 1020.35 1020.47 1020.58 1020.69 1020.81 1020.96 1021.14 1021.35 1021.61 1021.91 1022.25 1022.63 1023.03 1023.44 1023.85 1024.24 1024.59 1024.90 1025.16 1025.39
1015.51 1015.60 1015.76 1015.97 1016.22 1016.47 1016.71 1016.89 1017.03 1017.12 1017.19 1017.26 1017.35 1017.48 1017.68 1017.93 1018.24 1018.58 1018.94 1019.30 1019.65 1019.97 1020.25 1020.50 1020.72 1020.92 1021.11 1021.29 1021.48 1021.69 1021.93 1022.20 1022.51 1022.86 1023.24 1023.63 1024.03 1024.42 1024.79 1025.12 1025.41 1025.66 1025.87
1015.15 1015.26 1015.42 1015.63 1015.89 1016.15 1016.38 1016.58 1016.72 1016.81 1016.86 1016.90 1016.95 1017.04 1017.18 1017.40 1017.68 1018.03 1018.43 1018.85 1019.29 1019.72 1020.13 1020.52 1020.87 1021.19 1021.49 1021.78 1022.05 1022.33 1022.61 1022.92 1023.25 1023.61 1023.98 1024.35 1024.72 1025.08 1025.40 1025.69 1025.93 1026.14 1026.32
1014.80 1014.93 1015.11 1015.34 1015.60 1015.87 1016.12 1016.32 1016.46 1016.54 1016.57 1016.58 1016.58 1016.61 1016.70 1016.85 1017.09 1017.42 1017.82 1018.27 1018.78 1019.30 1019.83 1020.35 1020.85 1021.31 1021.75 1022.16 1022.54 1022.91 1023.27 1023.63 1023.99 1024.35 1024.71 1025.07 1025.41 1025.72 1025.99 1026.22 1026.42 1026.57 1026.70
1014.49 1014.65 1014.86 1015.11 1015.38 1015.66 1015.91 1016.11 1016.25 1016.31 1016.32 1016.28 1016.23 1016.20 1016.22 1016.31 1016.49 1016.76 1017.14 1017.61 1018.14 1018.73 1019.36 1019.99 1020.62 1021.23 1021.80 1022.34 1022.83 1023.31 1023.75 1024.17 1024.57 1024.96 1025.32 1025.67 1025.98 1026.25 1026.48 1026.66 1026.80 1026.91 1027.00
1014.25 1014.45 1014.69 1014.95 1015.24 1015.51 1015.76 1015.95 1016.06 1016.11 1016.08 1016.00 1015.90 1015.81 1015.76 1015.78 1015.89 1016.11 1016.45 1016.89 1017.44 1018.06 1018.74 1019.46 1020.19 1020.91 1021.60 1022.25 1022.86 1023.43 1023.96 1024.45 1024.90 1025.32 1025.70 1026.04 1026.34 1026.59 1026.80 1026.95 1027.07 1027.15 1027.20
1014.07 1014.31 1014.57 1014.86 1015.15 1015.41 1015.63 1015.79 1015.88 1015.89 1015.83 1015.72 1015.58 1015.43 1015.33 1015.29 1015.34 1015.51 1015.79 1016.20 1016.72 1017.34 1018.04 1018.80 1019.58 1020.37 1021.15 1021.90 1022.60 1023.25 1023.86 1024.41 1024.92 1025.38 1025.79 1026.15 1026.47 1026.73 1026.93 1027.09 1027.20 1027.27 1027.32
1013.92 1014.20 1014.50 1014.79 1015.07 1015.32 1015.51 1015.64 1015.69 1015.67 1015.57 1015.43 1015.26 1015.09 1014.95 1014.87 1014.87 1014.99 1015.22 1015.57 1016.05 1016.63 1017.31 1018.07 1018.87 1019.69 1020.51 1021.31 1022.07 1022.80 1023.47 1024.08 1024.64 1025.15 1025.61 1026.01 1026.35 1026.64 1026.88 1027.06 1027.20 1027.30 1027.38
1013.79 1014.11 1014.42 1014.72 1015.00 1015.22 1015.38 1015.47 1015.49 1015.43 1015.32 1015.16 1014.98 1014.80 1014.65 1014.55 1014.53 1014.60 1014.78 1015.08 1015.49 1016.02 1016.64 1017.35 1018.13 1018.94 1019.76 1020.58 1021.38 1022.14 1022.86 1023.52 1024.13 1024.69 1025.20 1025.65 1026.04 1026.38 1026.67 1026.91 1027.09 1027.24 1027.36
1013.66 1014.00 1014.34 1014.64 1014.90 1015.11 1015.24 1015.30 1015.29 1015.21 1015.09 1014.94 1014.77 1014.61 1014.47 1014.38 1014.34 1014.38 1014.52 1014.75 1015.10 1015.55 1016.10 1016.74 1017.45 1018.22 1019.01 1019.82 1020.62 1021.40 1022.14 1022.84 1023.49 1024.09 1024.64 1025.14 1025.59 1025.99 1026.34 1026.63 1026.89 1027.10 1027.28
1013.52 1013.89 1014.24 1014.55 1014.80 1014.99 1015.10 1015.14 1015.12 1015.05 1014.94 1014.81 1014.67 1014.55 1014.44 1014.36 1014.33 1014.36 1014.46 1014.64 1014.91 1015.28 1015.74 1016.29 1016.92 1017.62 1018.37 1019.14 1019.92 1020.69 1021.44 1022.15 1022.83 1023.45 1024.04 1024.57 1025.07 1025.51 1025.91 1026.27 1026.58 1026.86 1027.09
1013.39 1013.77 1014.13 1014.45 1014.71 1014.89 1014.99 1015.04 1015.02 1014.97 1014.89 1014.80 1014.71 1014.63 1014.56 1014.52 1014.50 1014.53 1014.60 1014.73 1014.93 1015.22 1015.59 1016.06 1016.60 1017.23 1017.91 1018.63 1019.37 1020.11 1020.84 1021.55 1022.22 1022.85 1023.44 1023.99 1024.51 1024.98 1025.42 1025.82 1026.18 1026.50 1026.78
1013.28 1013.67 1014.04 1014.37 1014.63 1014.82 1014.94 1015.00 1015.01 1014.99 1014.95 1014.91 1014.87 1014.85 1014.83 1014.82 1014.83 1014.85 1014.90 1014.99 1015.14 1015.35 1015.65 1016.03 1016.50 1017.04 1017.65 1018.31 1019.00 1019.70 1020.40 1021.07 1021.72 1022.33 1022.90 1023.44 1023.95 1024.42 1024.87 1025.28 1025.67 1026.02 1026.33
Thickness
5760 5758 5757 5756 5756 5755 5754 5753 5753 5752 5753 5753 5753 5752 5751 5751 5749 5746 5741 5738 5737 5735 5733 5731 5729 5728 5726 5725 5723 5722 5720 5719 5717 5716 5715 5714 5712 5711 5710 5709 5708 5707 5705
5760 5759 5757 5756 5756 5756 5756 5755 5753 5752 5752 5753 5753 5752 5752 5750 5749 5746 5742 5739 5737 5735 5734 5732 5730 5728 5726 5724 5723 5722 5720 5719 5717 5716 5714 5713 5712 5711 5710 5709 5707 5706 5705
5760 5760 5758 5757 5757 5757 5756 5755 5754 5752 5752 5753 5752 5752 5752 5750 5749 5747 5744 5741 5738 5736 5734 5732 5730 5728 5727 5725 5723 5722 5720 5719 5717 5716 5714 5713 5712 5710 5709 5708 5707 5706 5705
5760 5759 5759 5758 5758 5758 5757 5756 5755 5753 5752 5752 5752 5752 5752 5750 5749 5747 5745 5743 5741 5738 5736 5734 5732 5729 5727 5726 5724 5722 5721 5719 5718 5716 5715 5713 5712 5710 5709 5708 5706 5705 5704
5759 5759 5759 5759 5758 5758 5757 5757 5756 5754 5751 5751 5752 5752 5752 5751 5750 5749 5748 5746 5744 5741 5738 5735 5733 5731 5729 5727 5725 5723 5722 5720 5718 5717 5715 5713 5712 5710 5709 5707 5706 5705 5703
5759 5759 5759 5759 5759 5759 5757 5756 5755 5754 5752 5751 5751 5751 5751 5752 5751 5750 5749 5747 5745 5743 5740 5738 5734 5732 5730 5728 5726 5724 5723 5721 5719 5717 5716 5714 5712 5710 5709 5707 5705 5704 5702
5759 5758 5759 5759 5758 5757 5757 5756 5754 5752 5751 5752 5747 5744 5747 5751 5751 5750 5749 5747 5745 5745 5743 5739 5736 5734 5731 5729 5728 5726 5723 5722 5720 5718 5716 5714 5712 5710 5709 5707 5705 5703 5701
5758 5759 5758 5758 5758 5756 5755 5755 5753 5751 5750 5752 5746 5739 5735 5738 5744 5749 5749 5747 5746 5745 5743 5741 5739 5736 5733 5731 5729 5726 5724 5722 5720 5718 5716 5714 5712 5710 5708 5706 5704 5702 5700
5758 5758 5759 5758 5758 5757 5755 5754 5753 5750 5747 5749 5750 5742 5734 5729 5735 5743 5746 5747 5746 5745 5744 5743 5740 5737 5735 5732 5729 5727 5724 5722 5720 5718 5716 5714 5712 5709 5707 5705 5702 5700 5698
5759 5758 5758 5758 5757 5757 5756 5754 5754 5752 5749 5746 5748 5749 5747 5744 5734 5731 5739 5744 5745 5744 5744 5743 5741 5738 5735 5732 5729 5727 5724 5721 5719 5717 5715 5712 5710 5708 5705 5703 5700 5698 5695
5758 5758 5758 5757 5757 5757 5756 5755 5755 5753 5750 5748 5746 5746 5745 5745 5743 5734 5729 5735 5739 5742 5742 5741 5740 5737 5734 5731 5728 5725 5723 5720 5717 5714 5712 5710 5708 5705 5703 5700 5697 5695 5692
5758 5758 5758 5758 5757 5757 5756 5756 5755 5753 5751 5749 5748 5747 5745 5742 5740 5738 5733 5732 5732 5736 5739 5739 5737 5734 5731 5729 5727 5724 5721 5717 5714 5711 5709 5706 5704 5701 5699 5696 5693 5690 5687
5757 5758 5759 5757 5756 5756 5756 5755 5754 5752 5751 5749 5747 5747 5747 5747 5747 5743 5737 5732 5731 5733 5734 5734 5733 5731 5729 5725 5723 5720 5717 5714 5711 5707 5704 5702 5699 5696 5693 5690 5687 5684 5681
5758 5759 5758 5757 5756 5756 5755 5755 5753 5752 5751 5749 5748 5747 5746 5746 5747 5745 5740 5734 5727 5726 5727 5727 5728 5727 5724 5721 5718 5715 5711 5709 5706 5702 5699 5696 5692 5689 5686 5683 5680 5676 5673
5759 5759 5758 5756 5755 5754 5754 5753 5751 5751 5750 5748 5747 5746 5745 5745 5746 5745 5743 5739 5729 5720 5718 5721 5721 5721 5719 5716 5712 5708 5705 5702 5699 5696 5693 5689 5685 5682 5678 5675 5671 5668 5664
5758 5758 5757 5755 5754 5753 5752 5751 5750 5750 5747 5746 5745 5744 5743 5743 5743 5743 5741 5739 5735 5727 5718 5718 5717 5716 5714 5710 5705 5702 5698 5694 5691 5688 5685 5682 5678 5674 5670 5666 5663 5659 5655
5756 5755 5754 5753 5752 5751 5751 5749 5748 5747 5745 5744 5744 5742 5740 5740 5739 5739 5738 5736 5732 5728 5718 5714 5711 5709 5707 5703 5698 5695 5690 5686 5683 5680 5677 5673 5669 5666 5662 5658 5654 5650 5646
5755 5754 5753 5751 5750 5750 5749 5747 5745 5746 5744 5742 5741 5740 5738 5737 5736 5735 5733 5731 5729 5726 5719 5709 5704 5702 5699 5696 5691 5687 5683 5679 5675 5671 5668 5665 5661 5657 5653 5649 5645 5641 5637
5754 5753 5751 5750 5748 5748 5747 5746 5744 5743 5742 5740 5739 5737 5735 5734 5731 5731 5729 5727 5725 5723 5718 5709 5702 5697 5692 5689 5683 5679 5675 5671 5667 5662 5659 5655 5652 5648 5644 5640 5637 5633 5629
5752 5750 5749 5747 5746 5745 5744 5742 5740 5739 5738 5737 5736 5734 5732 5730 5729 5728 5726 5724 5721 5717 5712 5705 5698 5692 5686 5682 5677 5671 5665 5662 5659 5655 5651 5647 5643 5639 5635 5631 5628 5624 5620
5750 5748 5746 5744 5743 5742 5740 5738 5736 5736 5734 5732 5730 5729 5728 5727 5725 5724 5723 5720 5716 5711 5705 5699 5693 5686 5681 5675 5671 5666 5660 5655 5651 5647 5642 5638 5635 5631 5627 5622 5618 5614 5610
5746 5744 5742 5740 5738 5736 5734 5733 5732 5731 5729 5726 5724 5723 5722 5721 5720 5718 5716 5714 5711 5705 5700 5695 5689 5683 5677 5672 5667 5662 5655 5650 5643 5641 5636 5631 5627 5623 5619 5614 5609 5605 5601
5741 5739 5737 5735 5732 5729 5727 5727 5725 5725 5723 5721 5719 5718 5717 5716 5713 5711 5708 5705 5702 5699 5696 5692 5686 5680 5674 5669 5663 5657 5652 5646 5641 5637 5630 5624 5620 5616 5611 5606 5601 5597 5592
5737 5734 5732 5730 5727 5723 5721 5720 5719 5718 5717 5715 5713 5712 5710 5707 5706 5703 5700 5696 5692 5689 5687 5684 5680 5675 5671 5665 5660 5654 5647 5640 5634 5628 5625 5617 5613 5608 5604 5598 5593 5589 5584
5732 5730 5728 5725 5721 5716 5713 5712 5711 5711 5709 5707 5706 5704 5702 5699 5697 5694 5691 5686 5682 5678 5676 5673 5669 5666 5661 5656 5651 5645 5638 5632 5625 5619 5616 5612 5607 5601 5595 5589 5585 5580 5575
5728 5726 5722 5719 5716 5711 5707 5705 5703 5704 5701 5699 5697 5695 5692 5690 5687 5684 5681 5678 5673 5669 5666 5662 5658 5654 5651 5646 5642 5638 5633 5627 5620 5612 5608 5604 5600 5594 5587 5582 5578 5572 5567